Weather History for Parsons, KS

Change the Weather History Date:

Tuesday, December 27, 2011

  Actual Average Record
Temperature  
Mean Temperature 38 °F -  
Max Temperature 50 °F 43 °F 69 °F (2008)
Min Temperature 25 °F 25 °F 10 °F (1950)
Degree Days  
Heating Degree Days 27    
Moisture  
Dew Point 26 °F    
Average Humidity 63    
Maximum Humidity 86    
Minimum Humidity 41    
Precipitation  
Precipitation 0.00 in - - ()
Sea Level Pressure  
Sea Level Pressure 30.09 in    
Wind  
Wind Speed 9 mph (NW)    
Max Wind Speed 16 mph    
Max Gust Speed 23 mph    
Visibility 10 miles    
Events      
Averages and records for this station are not official NWS values.
T = Trace of Precipitation, MM = Missing Value Source: NWS Daily Summary

Daily Weather History Graph

Daily Weather History Graph

Search for Another Location

Airport:

Trip Planner

Search our weather history database for the weather conditions in past years. The results will help you decide how hot, cold, wet, or windy it might be!

Date:

Astronomy

Dec. 27, 2011 Rise Set
Actual Time 7:34 AM CST 5:11 PM CST
Civil Twilight 7:05 AM CST 5:40 PM CST
Nautical Twilight 6:33 AM CST 6:13 PM CST
Astronomical Twilight 6:01 AM CST 6:44 PM CST
Moon 9:34 AM CST (12/27) 8:41 PM CST (12/27)
Length of Visible Light 10h 34m
Length of Day
9h 36m
Waxing Crescent, 11% of the Moon is Illuminated
Dec 27
Waxing Crescent
Jan 1
First Quarter
Jan 9
Full
Jan 16
Last Quarter
Jan 23
New

Hourly Weather History & Observations

Time (CST) Temp. Windchill Dew Point Humidity Pressure Visibility Wind Dir Wind Speed Gust Speed Precip Events Conditions
12:52 AM 36.0 °F 30.3 °F 32.0 °F 86% 29.96 in 10.0 mi WNW 6.9 mph - N/A   Clear
1:52 AM 35.1 °F 29.3 °F 30.0 °F 82% 29.96 in 10.0 mi WNW 6.9 mph - N/A   Clear
2:52 AM 35.1 °F 27.9 °F 28.9 °F 78% 29.98 in 10.0 mi WNW 9.2 mph - N/A   Clear
3:52 AM 35.1 °F 27.4 °F 27.0 °F 72% 29.99 in 10.0 mi NW 10.4 mph - N/A   Clear
4:52 AM 35.1 °F 27.4 °F 27.0 °F 72% 30.01 in 10.0 mi NW 10.4 mph - N/A   Clear
5:52 AM 36.0 °F 28.0 °F 26.1 °F 67% 30.04 in 10.0 mi NW 11.5 mph - N/A   Clear
6:52 AM 35.1 °F 28.6 °F 26.1 °F 70% 30.07 in 10.0 mi NW 8.1 mph - N/A   Clear
7:52 AM 35.1 °F 27.9 °F 25.0 °F 67% 30.11 in 10.0 mi NW 9.2 mph - N/A   Clear
8:52 AM 39.0 °F 32.8 °F 26.1 °F 60% 30.12 in 10.0 mi NW 9.2 mph - N/A   Clear
9:52 AM 42.1 °F 34.9 °F 25.0 °F 51% 30.14 in 10.0 mi NW 13.8 mph 20.7 mph N/A   Clear
10:52 AM 45.0 °F 37.9 °F 26.1 °F 48% 30.15 in 10.0 mi NW 16.1 mph 23.0 mph N/A   Clear
11:52 AM 46.9 °F - 26.1 °F 44% 30.14 in 10.0 mi NNW 16.1 mph - N/A   Clear
12:52 PM 48.9 °F - 27.0 °F 43% 30.12 in 10.0 mi NNW 13.8 mph - N/A   Clear
1:52 PM 50.0 °F - 27.0 °F 41% 30.12 in 10.0 mi NW 16.1 mph - N/A   Clear
2:52 PM 50.0 °F - 27.0 °F 41% 30.11 in 10.0 mi WNW 10.4 mph - N/A   Clear
4:52 PM 45.0 °F 41.8 °F 26.1 °F 48% 30.14 in 10.0 mi NW 5.8 mph - N/A   Clear
5:52 PM 37.9 °F 34.4 °F 24.1 °F 57% 30.15 in 10.0 mi NW 4.6 mph - N/A   Clear
9:52 PM 27.0 °F - 21.0 °F 78% 30.17 in 10.0 mi Calm Calm - N/A   Clear
10:52 PM 26.1 °F - 21.0 °F 81% 30.17 in 10.0 mi Calm Calm - N/A   Clear
11:52 PM 25.0 °F - 19.9 °F 81% 30.17 in 10.0 mi Calm Calm - N/A   Clear